Time,TemperatureF,DewpointF,PressureIn,WindDirection,WindDirectionDegrees,WindSpeedMPH,WindSpeedGustMPH,Humidity,HourlyPrecipIn,Conditions,Clouds,dailyrainin,SoftwareType,DateUTC
2013-08-31 00:01:00,71.4,69.6,29.91,South,187,2.0,2.0,94,0.00,,,0.31,meteohub,2013-08-31 04:01:00,
2013-08-31 00:02:00,71.4,69.6,29.90,South,187,2.0,2.0,94,0.00,,,0.31,meteohub,2013-08-31 04:02:00,
2013-08-31 00:07:00,71.4,69.6,29.91,South,187,1.0,3.0,94,0.00,,,0.00,meteohub,2013-08-31 04:07:00,
2013-08-31 00:12:00,71.4,69.6,29.91,South,187,1.0,3.0,94,0.00,,,0.00,meteohub,2013-08-31 04:12:00,
2013-08-31 00:17:00,71.4,69.6,29.91,South,187,0.0,3.0,94,0.00,,,0.00,meteohub,2013-08-31 04:17:00,
2013-08-31 00:22:00,71.2,69.8,29.90,South,187,1.0,2.0,95,0.00,,,0.00,meteohub,2013-08-31 04:22:00,
2013-08-31 00:27:00,71.2,69.8,29.91,SSW,202,1.0,2.0,95,0.00,,,0.00,meteohub,2013-08-31 04:27:00,
2013-08-31 00:32:00,71.2,69.8,29.91,SSW,202,1.0,2.0,95,0.00,,,0.00,meteohub,2013-08-31 04:32:00,
2013-08-31 00:37:00,71.2,69.8,29.91,SSW,202,1.0,2.0,95,0.00,,,0.00,meteohub,2013-08-31 04:37:00,
2013-08-31 00:42:00,71.4,70.0,29.91,SSW,202,1.0,2.0,95,0.00,,,0.00,meteohub,2013-08-31 04:42:00,
2013-08-31 00:47:00,71.4,70.0,29.91,SSW,202,1.0,2.0,95,0.00,,,0.00,meteohub,2013-08-31 04:47:00,
2013-08-31 00:52:00,71.4,70.0,29.91,SSW,202,1.0,2.0,95,0.00,,,0.00,meteohub,2013-08-31 04:52:00,
2013-08-31 00:57:00,71.4,70.0,29.90,SSW,202,1.0,3.0,95,0.00,,,0.00,meteohub,2013-08-31 04:57:00,
2013-08-31 01:02:00,71.4,70.0,29.90,SSW,202,0.0,3.0,95,0.00,,,0.00,meteohub,2013-08-31 05:02:00,
2013-08-31 01:07:00,71.4,70.0,29.90,SSW,202,0.0,3.0,95,0.00,,,0.00,meteohub,2013-08-31 05:07:00,
2013-08-31 01:12:00,71.2,69.8,29.90,SSW,202,0.0,2.0,95,0.00,,,0.00,meteohub,2013-08-31 05:12:00,
2013-08-31 01:17:00,71.2,69.8,29.90,SSW,202,0.0,2.0,95,0.00,,,0.00,meteohub,2013-08-31 05:17:00,
2013-08-31 01:22:00,71.2,69.8,29.89,SSW,202,1.0,2.0,95,0.00,,,0.00,meteohub,2013-08-31 05:22:00,
2013-08-31 01:27:00,71.2,69.8,29.89,SSW,202,2.0,2.0,95,0.00,,,0.00,meteohub,2013-08-31 05:27:00,
2013-08-31 01:32:00,71.2,70.0,29.89,SSW,202,1.0,2.0,96,0.00,,,0.00,meteohub,2013-08-31 05:32:00,
2013-08-31 01:37:00,71.1,69.8,29.89,SSW,202,1.0,2.0,96,0.00,,,0.00,meteohub,2013-08-31 05:37:00,
2013-08-31 01:42:00,71.1,69.8,29.88,SSW,202,1.0,2.0,96,0.00,,,0.00,meteohub,2013-08-31 05:42:00,
2013-08-31 01:47:00,71.1,69.8,29.88,SSW,202,2.0,2.0,96,0.00,,,0.00,meteohub,2013-08-31 05:47:00,
2013-08-31 01:52:00,71.1,69.8,29.88,SSW,202,1.0,2.0,96,0.00,,,0.00,meteohub,2013-08-31 05:52:00,
2013-08-31 01:57:00,71.1,69.8,29.88,SSW,202,2.0,2.0,96,0.00,,,0.00,meteohub,2013-08-31 05:57:00,
2013-08-31 02:02:00,71.1,69.8,29.88,SSW,202,1.0,3.0,96,0.00,,,0.00,meteohub,2013-08-31 06:02:00,
2013-08-31 02:07:00,71.1,69.8,29.88,South,186,1.0,3.0,96,0.00,,,0.00,meteohub,2013-08-31 06:07:00,
2013-08-31 02:12:00,71.1,69.8,29.88,SSW,199,2.0,3.0,96,0.00,,,0.00,meteohub,2013-08-31 06:12:00,
2013-08-31 02:17:00,71.1,69.8,29.88,SSW,199,2.0,3.0,96,0.00,,,0.00,meteohub,2013-08-31 06:17:00,
2013-08-31 02:22:00,71.1,69.8,29.88,SW,214,2.0,3.0,96,0.00,,,0.00,meteohub,2013-08-31 06:22:00,
2013-08-31 02:27:00,71.1,69.8,29.88,SSW,213,2.0,3.0,96,0.00,,,0.00,meteohub,2013-08-31 06:27:00,
2013-08-31 02:32:00,71.1,69.8,29.88,SSW,205,2.0,3.0,96,0.00,,,0.00,meteohub,2013-08-31 06:32:00,
2013-08-31 02:37:00,71.1,69.8,29.88,SSW,205,2.0,3.0,96,0.00,,,0.00,meteohub,2013-08-31 06:37:00,
2013-08-31 02:42:00,70.9,69.6,29.88,SSW,205,1.0,3.0,96,0.00,,,0.00,meteohub,2013-08-31 06:42:00,
2013-08-31 02:47:00,70.9,69.4,29.88,SSW,205,0.0,3.0,95,0.00,,,0.00,meteohub,2013-08-31 06:47:00,
2013-08-31 02:52:00,70.9,69.4,29.88,SSW,205,0.0,2.0,95,0.00,,,0.00,meteohub,2013-08-31 06:52:00,
2013-08-31 02:57:00,70.9,69.4,29.88,SSW,205,1.0,2.0,95,0.00,,,0.00,meteohub,2013-08-31 06:57:00,
2013-08-31 03:02:00,70.9,69.4,29.88,SSW,205,1.0,2.0,95,0.00,,,0.00,meteohub,2013-08-31 07:02:00,
2013-08-31 03:07:00,70.9,69.4,29.88,SSW,205,0.0,2.0,95,0.00,,,0.00,meteohub,2013-08-31 07:07:00,
2013-08-31 03:12:00,70.7,69.3,29.88,SSW,205,0.0,2.0,95,0.00,,,0.00,meteohub,2013-08-31 07:12:00,
2013-08-31 03:17:00,70.5,69.1,29.88,SSW,205,1.0,2.0,95,0.00,,,0.00,meteohub,2013-08-31 07:17:00,
2013-08-31 03:22:00,70.5,69.1,29.88,SSW,205,0.0,2.0,95,0.00,,,0.00,meteohub,2013-08-31 07:22:00,
2013-08-31 03:27:00,70.5,69.1,29.88,SSW,205,0.0,2.0,95,0.00,,,0.00,meteohub,2013-08-31 07:27:00,
2013-08-31 03:32:00,70.5,69.3,29.88,SSW,205,0.0,2.0,96,0.00,,,0.00,meteohub,2013-08-31 07:32:00,
2013-08-31 03:37:00,70.3,69.1,29.88,SSW,205,0.0,2.0,96,0.00,,,0.00,meteohub,2013-08-31 07:37:00,
2013-08-31 03:42:00,70.3,69.1,29.88,SSW,205,0.0,2.0,96,0.00,,,0.00,meteohub,2013-08-31 07:42:00,
2013-08-31 03:47:00,70.3,69.1,29.88,SSW,205,0.0,1.0,96,0.00,,,0.00,meteohub,2013-08-31 07:47:00,
2013-08-31 03:52:00,70.3,69.1,29.88,SSW,205,0.0,1.0,96,0.00,,,0.00,meteohub,2013-08-31 07:52:00,
2013-08-31 03:57:00,70.3,69.1,29.88,SSW,205,0.0,1.0,96,0.00,,,0.00,meteohub,2013-08-31 07:57:00,
2013-08-31 04:02:00,70.2,68.9,29.87,SSW,205,0.0,1.0,96,0.00,,,0.00,meteohub,2013-08-31 08:02:00,
2013-08-31 04:07:00,70.2,68.9,29.88,SSW,205,0.0,1.0,96,0.00,,,0.00,meteohub,2013-08-31 08:07:00,
2013-08-31 04:12:00,70.2,68.9,29.88,SSW,205,1.0,1.0,96,0.00,,,0.00,meteohub,2013-08-31 08:12:00,
2013-08-31 04:17:00,70.3,69.1,29.87,SSW,205,1.0,2.0,96,0.00,,,0.00,meteohub,2013-08-31 08:17:00,
2013-08-31 04:22:00,70.3,69.1,29.88,SSW,205,1.0,2.0,96,0.00,,,0.00,meteohub,2013-08-31 08:22:00,
2013-08-31 04:27:00,70.3,69.1,29.88,SSW,205,0.0,2.0,96,0.00,,,0.00,meteohub,2013-08-31 08:27:00,
2013-08-31 04:32:00,70.3,69.1,29.87,SSW,205,0.0,2.0,96,0.00,,,0.00,meteohub,2013-08-31 08:32:00,
2013-08-31 04:37:00,70.3,69.1,29.87,SSW,205,1.0,2.0,96,0.00,,,0.00,meteohub,2013-08-31 08:37:00,
2013-08-31 04:42:00,70.3,68.9,29.87,SSW,205,0.0,2.0,95,0.00,,,0.00,meteohub,2013-08-31 08:42:00,
2013-08-31 04:47:00,70.3,68.9,29.87,SSW,205,0.0,2.0,95,0.00,,,0.00,meteohub,2013-08-31 08:47:00,
2013-08-31 04:52:00,70.3,68.9,29.87,SSW,205,0.0,2.0,95,0.00,,,0.00,meteohub,2013-08-31 08:52:00,
2013-08-31 04:57:00,70.3,68.9,29.87,SSW,205,0.0,1.0,95,0.00,,,0.00,meteohub,2013-08-31 08:57:00,
2013-08-31 05:02:00,70.3,68.9,29.87,SSW,205,0.0,1.0,95,0.00,,,0.00,meteohub,2013-08-31 09:02:00,
2013-08-31 05:07:00,70.2,68.7,29.87,SSW,205,0.0,1.0,95,0.00,,,0.00,meteohub,2013-08-31 09:07:00,
2013-08-31 05:12:00,70.2,68.7,29.88,SSW,205,0.0,1.0,95,0.00,,,0.00,meteohub,2013-08-31 09:12:00,
2013-08-31 05:17:00,70.2,68.7,29.88,SSW,205,0.0,1.0,95,0.00,,,0.00,meteohub,2013-08-31 09:17:00,
2013-08-31 05:22:00,70.2,68.7,29.88,SSW,205,0.0,1.0,95,0.00,,,0.00,meteohub,2013-08-31 09:22:00,
2013-08-31 05:27:00,70.0,68.5,29.88,SSW,205,0.0,1.0,95,0.00,,,0.00,meteohub,2013-08-31 09:27:00,
2013-08-31 05:32:00,70.0,68.5,29.87,SSW,205,0.0,1.0,95,0.00,,,0.00,meteohub,2013-08-31 09:32:00,
2013-08-31 05:37:00,70.0,68.5,29.88,SSW,205,0.0,1.0,95,0.00,,,0.00,meteohub,2013-08-31 09:37:00,
2013-08-31 05:42:00,69.8,68.4,29.87,SSW,205,0.0,1.0,95,0.00,,,0.00,meteohub,2013-08-31 09:42:00,
2013-08-31 05:47:00,69.6,68.2,29.88,SSW,205,0.0,1.0,95,0.00,,,0.00,meteohub,2013-08-31 09:47:00,
2013-08-31 05:52:00,69.6,68.2,29.87,SSW,205,0.0,1.0,95,0.00,,,0.00,meteohub,2013-08-31 09:52:00,
2013-08-31 05:57:00,69.6,68.4,29.87,SSW,205,0.0,1.0,96,0.00,,,0.00,meteohub,2013-08-31 09:57:00,
2013-08-31 06:02:00,69.4,68.2,29.87,SSW,205,0.0,1.0,96,0.00,,,0.00,meteohub,2013-08-31 10:02:00,
2013-08-31 06:07:00,69.4,68.2,29.87,SSW,205,0.0,1.0,96,0.00,,,0.00,meteohub,2013-08-31 10:07:00,
2013-08-31 06:12:00,69.4,68.2,29.87,SSW,205,0.0,1.0,96,0.00,,,0.00,meteohub,2013-08-31 10:12:00,
2013-08-31 06:17:00,69.3,68.0,29.87,SSW,205,0.0,1.0,96,0.00,,,0.00,meteohub,2013-08-31 10:17:00,
2013-08-31 06:22:00,69.3,68.0,29.87,SSW,205,0.0,1.0,96,0.00,,,0.00,meteohub,2013-08-31 10:22:00,
2013-08-31 06:27:00,69.3,68.0,29.87,SSW,205,0.0,1.0,96,0.00,,,0.00,meteohub,2013-08-31 10:27:00,
2013-08-31 06:32:00,69.1,67.8,29.87,SSW,205,0.0,1.0,96,0.00,,,0.00,meteohub,2013-08-31 10:32:00,
2013-08-31 06:37:00,69.1,67.8,29.88,SSW,205,0.0,1.0,96,0.00,,,0.00,meteohub,2013-08-31 10:37:00,
2013-08-31 06:42:00,68.9,67.6,29.87,SSW,205,0.0,1.0,96,0.00,,,0.00,meteohub,2013-08-31 10:42:00,
2013-08-31 06:47:00,68.7,67.5,29.87,SSW,205,0.0,1.0,96,0.00,,,0.00,meteohub,2013-08-31 10:47:00,
2013-08-31 06:52:00,68.7,67.5,29.88,SSW,205,0.0,1.0,96,0.00,,,0.00,meteohub,2013-08-31 10:52:00,
2013-08-31 06:57:00,68.7,67.5,29.88,SSW,205,0.0,1.0,96,0.00,,,0.00,meteohub,2013-08-31 10:57:00,
2013-08-31 07:02:00,68.7,67.5,29.88,SSW,205,0.0,1.0,96,0.00,,,0.00,meteohub,2013-08-31 11:02:00,
2013-08-31 07:07:00,68.7,67.8,29.88,SSW,205,0.0,1.0,97,0.00,,,0.00,meteohub,2013-08-31 11:07:00,
2013-08-31 07:12:00,68.9,68.0,29.88,SSW,205,0.0,1.0,97,0.00,,,0.00,meteohub,2013-08-31 11:12:00,
2013-08-31 07:17:00,68.9,68.0,29.88,SSW,205,0.0,1.0,97,0.00,,,0.00,meteohub,2013-08-31 11:17:00,
2013-08-31 07:22:00,68.9,68.0,29.88,SSW,205,0.0,1.0,97,0.00,,,0.00,meteohub,2013-08-31 11:22:00,
2013-08-31 07:27:00,69.1,68.2,29.88,SSW,205,0.0,1.0,97,0.00,,,0.00,meteohub,2013-08-31 11:27:00,
2013-08-31 07:32:00,69.1,68.2,29.88,SSW,205,0.0,0.0,97,0.00,,,0.00,meteohub,2013-08-31 11:32:00,
2013-08-31 07:37:00,69.3,68.4,29.88,SSW,205,0.0,1.0,97,0.00,,,0.00,meteohub,2013-08-31 11:37:00,
2013-08-31 07:42:00,69.4,68.5,29.88,SSW,205,0.0,1.0,97,0.00,,,0.00,meteohub,2013-08-31 11:42:00,
2013-08-31 07:47:00,69.4,68.5,29.88,SSW,205,0.0,1.0,97,0.00,,,0.00,meteohub,2013-08-31 11:47:00,
2013-08-31 07:52:00,69.6,68.7,29.88,SSW,205,1.0,1.0,97,0.00,,,0.00,meteohub,2013-08-31 11:52:00,
2013-08-31 07:57:00,69.8,68.9,29.88,SSW,205,0.0,2.0,97,0.00,,,0.00,meteohub,2013-08-31 11:57:00,
2013-08-31 08:02:00,70.0,69.1,29.87,SSW,205,0.0,2.0,97,0.00,,,0.00,meteohub,2013-08-31 12:02:00,
2013-08-31 08:07:00,70.2,69.3,29.88,SSW,205,2.0,2.0,97,0.00,,,0.00,meteohub,2013-08-31 12:07:00,
2013-08-31 08:12:00,70.3,69.1,29.88,SSW,205,1.0,2.0,96,0.00,,,0.00,meteohub,2013-08-31 12:12:00,
2013-08-31 08:17:00,70.5,69.1,29.87,SSW,205,1.0,2.0,95,0.00,,,0.00,meteohub,2013-08-31 12:17:00,
2013-08-31 08:22:00,70.7,69.3,29.88,SSW,205,1.0,2.0,95,0.00,,,0.00,meteohub,2013-08-31 12:22:00,
2013-08-31 08:27:00,70.9,69.4,29.88,WSW,258,1.0,2.0,95,0.00,,,0.00,meteohub,2013-08-31 12:27:00,
2013-08-31 08:32:00,71.1,69.3,29.88,WSW,246,2.0,2.0,94,0.00,,,0.00,meteohub,2013-08-31 12:32:00,
2013-08-31 08:37:00,71.1,69.3,29.88,WSW,246,1.0,2.0,94,0.00,,,0.00,meteohub,2013-08-31 12:37:00,
2013-08-31 08:42:00,71.2,69.1,29.88,WSW,240,1.0,2.0,93,0.00,,,0.00,meteohub,2013-08-31 12:42:00,
2013-08-31 08:47:00,71.2,69.4,29.88,SW,215,1.0,2.0,94,0.00,,,0.00,meteohub,2013-08-31 12:47:00,
2013-08-31 08:52:00,71.2,69.4,29.88,SSW,200,2.0,3.0,94,0.00,,,0.00,meteohub,2013-08-31 12:52:00,
2013-08-31 08:57:00,71.4,69.6,29.88,SSW,200,2.0,3.0,94,0.00,,,0.00,meteohub,2013-08-31 12:57:00,
2013-08-31 09:02:00,71.8,69.6,29.87,SSW,206,2.0,3.0,93,0.00,,,0.00,meteohub,2013-08-31 13:02:00,
2013-08-31 09:07:00,72.0,69.8,29.87,South,190,3.0,3.0,93,0.00,,,0.00,meteohub,2013-08-31 13:07:00,
2013-08-31 09:12:00,72.1,70.0,29.87,SW,215,2.0,3.0,93,0.00,,,0.00,meteohub,2013-08-31 13:12:00,
2013-08-31 09:17:00,72.3,70.2,29.88,SW,224,2.0,3.0,93,0.00,,,0.00,meteohub,2013-08-31 13:17:00,
2013-08-31 09:22:00,72.5,70.3,29.88,SW,232,1.0,3.0,93,0.00,,,0.00,meteohub,2013-08-31 13:22:00,
2013-08-31 09:27:00,72.7,70.2,29.88,SW,227,2.0,3.0,92,0.00,,,0.00,meteohub,2013-08-31 13:27:00,
2013-08-31 09:32:00,72.9,70.3,29.88,SSW,211,1.0,3.0,92,0.00,,,0.00,meteohub,2013-08-31 13:32:00,
2013-08-31 09:37:00,72.9,70.2,29.88,SSW,197,1.0,3.0,91,0.00,,,0.00,meteohub,2013-08-31 13:37:00,
2013-08-31 09:42:00,73.2,70.7,29.88,SW,223,2.0,3.0,92,0.00,,,0.00,meteohub,2013-08-31 13:42:00,
2013-08-31 09:47:00,73.6,70.7,29.88,SW,214,2.0,3.0,91,0.00,,,0.00,meteohub,2013-08-31 13:47:00,
2013-08-31 09:52:00,73.8,70.7,29.88,SW,236,1.0,4.0,90,0.00,,,0.00,meteohub,2013-08-31 13:52:00,
2013-08-31 09:57:00,73.9,70.5,29.88,SW,221,2.0,4.0,89,0.00,,,0.00,meteohub,2013-08-31 13:57:00,
2013-08-31 10:02:00,74.1,71.1,29.88,SW,236,1.0,4.0,90,0.00,,,0.00,meteohub,2013-08-31 14:02:00,
2013-08-31 10:07:00,74.5,71.1,29.88,WSW,242,1.0,3.0,89,0.00,,,0.00,meteohub,2013-08-31 14:07:00,
2013-08-31 10:12:00,75.6,71.8,29.88,SSE,165,1.0,3.0,88,0.00,,,0.00,meteohub,2013-08-31 14:12:00,
2013-08-31 10:17:00,75.9,71.8,29.88,WSW,250,1.0,3.0,87,0.00,,,0.00,meteohub,2013-08-31 14:17:00,
2013-08-31 10:22:00,76.1,72.0,29.88,SSW,201,1.0,3.0,87,0.00,,,0.00,meteohub,2013-08-31 14:22:00,
2013-08-31 10:27:00,76.1,72.0,29.88,WSW,241,1.0,3.0,87,0.00,,,0.00,meteohub,2013-08-31 14:27:00,
2013-08-31 10:32:00,76.5,72.3,29.88,SSW,212,1.0,3.0,87,0.00,,,0.00,meteohub,2013-08-31 14:32:00,
2013-08-31 10:37:00,76.5,72.0,29.88,South,177,1.0,3.0,86,0.00,,,0.00,meteohub,2013-08-31 14:37:00,
2013-08-31 10:42:00,78.1,73.6,29.88,SW,231,0.0,3.0,86,0.00,,,0.00,meteohub,2013-08-31 14:42:00,
2013-08-31 10:47:00,77.5,72.0,29.88,WSW,249,1.0,2.0,83,0.00,,,0.00,meteohub,2013-08-31 14:47:00,
2013-08-31 10:52:00,77.4,72.5,29.88,WSW,253,0.0,2.0,85,0.00,,,0.00,meteohub,2013-08-31 14:52:00,
2013-08-31 10:57:00,77.5,72.3,29.88,SSW,208,0.0,2.0,84,0.00,,,0.00,meteohub,2013-08-31 14:57:00,
2013-08-31 11:02:00,77.7,72.5,29.88,SSE,162,0.0,2.0,84,0.00,,,0.00,meteohub,2013-08-31 15:02:00,
2013-08-31 11:07:00,78.1,73.2,29.88,SSW,210,2.0,2.0,85,0.00,,,0.00,meteohub,2013-08-31 15:07:00,
2013-08-31 11:12:00,78.4,72.9,29.88,South,179,1.0,3.0,83,0.00,,,0.00,meteohub,2013-08-31 15:12:00,
2013-08-31 11:17:00,78.6,73.4,29.88,SSW,200,0.0,3.0,84,0.00,,,0.00,meteohub,2013-08-31 15:17:00,
2013-08-31 11:22:00,78.6,73.0,29.88,SSE,158,2.0,3.0,83,0.00,,,0.00,meteohub,2013-08-31 15:22:00,
2013-08-31 11:27:00,78.3,72.3,29.88,SSW,195,1.0,3.0,82,0.00,,,0.00,meteohub,2013-08-31 15:27:00,
2013-08-31 11:32:00,78.8,73.2,29.88,SSE,161,1.0,3.0,83,0.00,,,0.00,meteohub,2013-08-31 15:32:00,
2013-08-31 11:37:00,78.6,72.7,29.87,South,184,1.0,3.0,82,0.00,,,0.00,meteohub,2013-08-31 15:37:00,
2013-08-31 11:42:00,79.2,73.9,29.87,ESE,123,0.0,2.0,84,0.00,,,0.00,meteohub,2013-08-31 15:42:00,
2013-08-31 11:47:00,79.3,73.4,29.87,WSW,238,1.0,3.0,82,0.00,,,0.00,meteohub,2013-08-31 15:47:00,
2013-08-31 11:52:00,79.9,74.3,29.87,South,173,2.0,4.0,83,0.00,,,0.00,meteohub,2013-08-31 15:52:00,
2013-08-31 11:57:00,80.1,74.1,29.87,South,175,0.0,4.0,82,0.00,,,0.00,meteohub,2013-08-31 15:57:00,
2013-08-31 12:02:00,80.1,73.8,29.87,South,184,1.0,4.0,81,0.00,,,0.00,meteohub,2013-08-31 16:02:00,
2013-08-31 12:07:00,80.2,73.9,29.86,South,186,1.0,2.0,81,0.00,,,0.00,meteohub,2013-08-31 16:07:00,
2013-08-31 12:12:00,80.2,73.9,29.86,South,187,2.0,2.0,81,0.00,,,0.00,meteohub,2013-08-31 16:12:00,
2013-08-31 12:17:00,80.8,73.9,29.86,SE,144,0.0,2.0,80,0.00,,,0.00,meteohub,2013-08-31 16:17:00,
2013-08-31 12:22:00,80.6,74.3,29.86,SSW,209,2.0,3.0,81,0.00,,,0.00,meteohub,2013-08-31 16:22:00,
2013-08-31 12:27:00,80.8,73.6,29.86,South,175,1.0,3.0,79,0.00,,,0.00,meteohub,2013-08-31 16:27:00,
2013-08-31 12:32:00,81.1,73.6,29.85,South,190,2.0,3.0,78,0.00,,,0.00,meteohub,2013-08-31 16:32:00,
2013-08-31 12:37:00,81.1,73.6,29.85,SE,131,1.0,3.0,78,0.00,,,0.00,meteohub,2013-08-31 16:37:00,
2013-08-31 12:42:00,81.1,74.3,29.85,SSE,166,2.0,3.0,80,0.00,,,0.00,meteohub,2013-08-31 16:42:00,
2013-08-31 12:47:00,81.0,73.8,29.85,South,181,1.0,3.0,79,0.00,,,0.00,meteohub,2013-08-31 16:47:00,
2013-08-31 12:52:00,81.0,73.4,29.85,WSW,258,1.0,3.0,78,0.00,,,0.00,meteohub,2013-08-31 16:52:00,
2013-08-31 12:57:00,81.1,73.9,29.85,SSW,198,1.0,4.0,79,0.00,,,0.00,meteohub,2013-08-31 16:57:00,
2013-08-31 13:02:00,81.3,73.8,29.85,South,186,2.0,4.0,78,0.00,,,0.00,meteohub,2013-08-31 17:02:00,
2013-08-31 13:07:00,81.7,73.8,29.85,SE,132,1.0,5.0,77,0.00,,,0.00,meteohub,2013-08-31 17:07:00,
2013-08-31 13:12:00,81.7,73.4,29.85,SSW,196,0.0,5.0,76,0.00,,,0.00,meteohub,2013-08-31 17:12:00,
2013-08-31 13:17:00,81.7,73.0,29.85,SSW,196,0.0,5.0,75,0.00,,,0.00,meteohub,2013-08-31 17:17:00,
2013-08-31 13:22:00,81.7,73.8,29.85,SSW,196,0.0,4.0,77,0.00,,,0.00,meteohub,2013-08-31 17:22:00,
2013-08-31 13:27:00,81.7,74.1,29.85,SSW,196,2.0,3.0,78,0.00,,,0.00,meteohub,2013-08-31 17:27:00,
2013-08-31 13:32:00,81.7,73.4,29.85,SSE,166,1.0,2.0,76,0.00,,,0.00,meteohub,2013-08-31 17:32:00,
2013-08-31 13:37:00,81.7,73.8,29.85,SSW,197,1.0,2.0,77,0.00,,,0.00,meteohub,2013-08-31 17:37:00,
2013-08-31 13:42:00,81.7,74.5,29.85,SSW,197,0.0,2.0,79,0.00,,,0.00,meteohub,2013-08-31 17:42:00,
2013-08-31 13:47:00,81.7,74.5,29.85,ESE,117,0.0,2.0,79,0.00,,,0.00,meteohub,2013-08-31 17:47:00,
2013-08-31 13:52:00,81.7,75.2,29.85,SE,127,2.0,2.0,81,0.00,,,0.00,meteohub,2013-08-31 17:52:00,
2013-08-31 13:57:00,81.7,74.5,29.85,SSE,167,1.0,3.0,79,0.00,,,0.00,meteohub,2013-08-31 17:57:00,
2013-08-31 14:02:00,81.5,74.3,29.85,SSE,158,1.0,3.0,79,0.00,,,0.00,meteohub,2013-08-31 18:02:00,
2013-08-31 14:07:00,81.7,73.8,29.85,ESE,111,1.0,3.0,77,0.00,,,0.00,meteohub,2013-08-31 18:07:00,
2013-08-31 14:12:00,81.7,74.1,29.85,SSW,194,1.0,3.0,78,0.00,,,0.00,meteohub,2013-08-31 18:12:00,
2013-08-31 14:17:00,82.0,74.5,29.84,East,99,1.0,4.0,78,0.00,,,0.00,meteohub,2013-08-31 18:17:00,
2013-08-31 14:22:00,82.0,73.8,29.84,SSW,203,1.0,5.0,76,0.00,,,0.00,meteohub,2013-08-31 18:22:00,
2013-08-31 14:27:00,82.2,74.7,29.84,SSW,203,1.0,5.0,78,0.00,,,0.00,meteohub,2013-08-31 18:27:00,
2013-08-31 14:32:00,82.2,74.3,29.84,SSW,204,2.0,5.0,77,0.00,,,0.00,meteohub,2013-08-31 18:32:00,
2013-08-31 14:37:00,82.2,74.3,29.84,SSE,162,0.0,4.0,77,0.00,,,0.00,meteohub,2013-08-31 18:37:00,
2013-08-31 14:42:00,82.0,74.1,29.84,ESE,119,3.0,4.0,77,0.00,,,0.00,meteohub,2013-08-31 18:42:00,
2013-08-31 14:47:00,82.0,73.8,29.84,SSE,163,2.0,4.0,76,0.00,,,0.00,meteohub,2013-08-31 18:47:00,
2013-08-31 14:52:00,81.9,74.3,29.84,SSE,167,2.0,3.0,78,0.00,,,0.00,meteohub,2013-08-31 18:52:00,
2013-08-31 14:57:00,81.7,74.5,29.84,East,101,2.0,4.0,79,0.00,,,0.00,meteohub,2013-08-31 18:57:00,
2013-08-31 15:02:00,81.7,74.5,29.84,SE,142,1.0,4.0,79,0.00,,,0.00,meteohub,2013-08-31 19:02:00,
2013-08-31 15:07:00,81.9,74.3,29.84,SSE,164,0.0,4.0,78,0.00,,,0.00,meteohub,2013-08-31 19:07:00,
2013-08-31 15:12:00,81.7,74.1,29.83,SSE,148,1.0,6.0,78,0.00,,,0.00,meteohub,2013-08-31 19:12:00,
2013-08-31 15:17:00,81.5,73.9,29.83,South,169,2.0,6.0,78,0.00,,,0.00,meteohub,2013-08-31 19:17:00,
2013-08-31 15:22:00,81.3,74.1,29.83,SSE,164,2.0,6.0,79,0.00,,,0.00,meteohub,2013-08-31 19:22:00,
2013-08-31 15:27:00,81.3,73.8,29.82,SSE,148,3.0,4.0,78,0.00,,,0.00,meteohub,2013-08-31 19:27:00,
2013-08-31 15:32:00,81.5,74.3,29.82,ESE,103,3.0,4.0,79,0.00,,,0.00,meteohub,2013-08-31 19:32:00,
2013-08-31 15:37:00,81.5,74.3,29.82,South,189,2.0,4.0,79,0.00,,,0.00,meteohub,2013-08-31 19:37:00,
2013-08-31 15:42:00,81.3,73.4,29.82,South,186,2.0,4.0,77,0.00,,,0.00,meteohub,2013-08-31 19:42:00,
2013-08-31 15:47:00,81.3,73.8,29.82,SE,138,2.0,5.0,78,0.00,,,0.00,meteohub,2013-08-31 19:47:00,
2013-08-31 15:52:00,81.1,73.9,29.82,ESE,122,1.0,5.0,79,0.00,,,0.00,meteohub,2013-08-31 19:52:00,
2013-08-31 15:57:00,81.1,73.6,29.82,SSE,157,2.0,5.0,78,0.00,,,0.00,meteohub,2013-08-31 19:57:00,
2013-08-31 16:02:00,81.0,73.4,29.82,SSE,167,1.0,9.0,78,0.00,,,0.00,meteohub,2013-08-31 20:02:00,
2013-08-31 16:07:00,81.0,73.4,29.82,South,174,2.0,9.0,78,0.00,,,0.00,meteohub,2013-08-31 20:07:00,
2013-08-31 16:12:00,80.8,73.6,29.82,SE,131,0.0,9.0,79,0.00,,,0.00,meteohub,2013-08-31 20:12:00,
2013-08-31 16:17:00,80.8,73.9,29.82,SSW,201,2.0,4.0,80,0.00,,,0.00,meteohub,2013-08-31 20:17:00,
2013-08-31 16:22:00,80.4,73.8,29.82,South,171,2.0,4.0,80,0.00,,,0.00,meteohub,2013-08-31 20:22:00,
2013-08-31 16:27:00,80.4,73.2,29.82,SSE,153,1.0,4.0,79,0.00,,,0.00,meteohub,2013-08-31 20:27:00,
2013-08-31 16:32:00,80.4,73.8,29.82,South,180,0.0,4.0,80,0.00,,,0.00,meteohub,2013-08-31 20:32:00,
2013-08-31 16:37:00,80.4,74.1,29.82,SSE,163,0.0,4.0,81,0.00,,,0.00,meteohub,2013-08-31 20:37:00,
2013-08-31 16:42:00,80.4,74.8,29.82,South,183,0.0,2.0,83,0.00,,,0.00,meteohub,2013-08-31 20:42:00,
2013-08-31 16:47:00,80.2,74.3,29.82,SSE,156,0.0,2.0,82,0.00,,,0.00,meteohub,2013-08-31 20:47:00,
2013-08-31 16:52:00,80.2,74.3,29.82,South,173,1.0,2.0,82,0.00,,,0.00,meteohub,2013-08-31 20:52:00,
2013-08-31 16:57:00,80.2,74.3,29.82,South,173,1.0,2.0,82,0.00,,,0.00,meteohub,2013-08-31 20:57:00,
2013-08-31 17:02:00,80.1,73.8,29.81,SSE,157,2.0,3.0,81,0.00,,,0.00,meteohub,2013-08-31 21:02:00,
2013-08-31 17:07:00,80.1,73.8,29.81,South,177,2.0,3.0,81,0.00,,,0.00,meteohub,2013-08-31 21:07:00,
2013-08-31 17:12:00,80.1,73.4,29.81,South,175,2.0,3.0,80,0.00,,,0.00,meteohub,2013-08-31 21:12:00,
2013-08-31 17:17:00,79.9,73.2,29.81,SE,146,4.0,5.0,80,0.00,,,0.00,meteohub,2013-08-31 21:17:00,
2013-08-31 17:22:00,79.7,73.0,29.81,SE,124,0.0,5.0,80,0.00,,,0.00,meteohub,2013-08-31 21:22:00,
2013-08-31 17:27:00,79.5,73.2,29.81,SSW,197,1.0,5.0,81,0.00,,,0.00,meteohub,2013-08-31 21:27:00,
2013-08-31 17:32:00,79.5,72.9,29.81,SW,215,0.0,5.0,80,0.00,,,0.00,meteohub,2013-08-31 21:32:00,
2013-08-31 17:37:00,79.3,73.0,29.82,SE,129,1.0,2.0,81,0.00,,,0.00,meteohub,2013-08-31 21:37:00,
2013-08-31 17:42:00,79.3,73.0,29.82,SSE,147,0.0,2.0,81,0.00,,,0.00,meteohub,2013-08-31 21:42:00,
2013-08-31 17:47:00,79.2,73.2,29.82,SSE,148,0.0,1.0,82,0.00,,,0.00,meteohub,2013-08-31 21:47:00,
2013-08-31 17:52:00,79.2,73.2,29.82,SSE,148,0.0,1.0,82,0.00,,,0.00,meteohub,2013-08-31 21:52:00,
2013-08-31 17:57:00,79.2,73.6,29.81,SSE,149,0.0,1.0,83,0.00,,,0.00,meteohub,2013-08-31 21:57:00,
2013-08-31 18:02:00,79.2,73.6,29.81,SSE,150,0.0,1.0,83,0.00,,,0.00,meteohub,2013-08-31 22:02:00,
2013-08-31 18:07:00,79.0,73.4,29.82,SE,140,0.0,1.0,83,0.00,,,0.00,meteohub,2013-08-31 22:07:00,
2013-08-31 18:12:00,79.0,73.4,29.81,SSE,149,0.0,1.0,83,0.00,,,0.00,meteohub,2013-08-31 22:12:00,
2013-08-31 18:17:00,79.0,73.4,29.81,SSE,149,0.0,1.0,83,0.00,,,0.00,meteohub,2013-08-31 22:17:00,
2013-08-31 18:22:00,79.0,73.4,29.81,South,176,0.0,2.0,83,0.00,,,0.00,meteohub,2013-08-31 22:22:00,
2013-08-31 18:27:00,79.0,73.4,29.81,South,189,0.0,2.0,83,0.00,,,0.00,meteohub,2013-08-31 22:27:00,
2013-08-31 18:32:00,79.0,73.4,29.81,South,189,0.0,2.0,83,0.00,,,0.00,meteohub,2013-08-31 22:32:00,
2013-08-31 18:37:00,79.0,73.4,29.81,ESE,116,0.0,2.0,83,0.00,,,0.00,meteohub,2013-08-31 22:37:00,
2013-08-31 18:42:00,79.0,73.4,29.81,SE,126,0.0,2.0,83,0.00,,,0.00,meteohub,2013-08-31 22:42:00,
2013-08-31 18:47:00,78.8,73.6,29.81,SSE,156,0.0,2.0,84,0.00,,,0.00,meteohub,2013-08-31 22:47:00,
2013-08-31 18:52:00,78.6,73.4,29.81,ESE,102,1.0,2.0,84,0.00,,,0.00,meteohub,2013-08-31 22:52:00,
2013-08-31 18:57:00,78.4,73.2,29.81,SE,130,1.0,2.0,84,0.00,,,0.00,meteohub,2013-08-31 22:57:00,
2013-08-31 19:02:00,78.4,73.2,29.81,SE,130,0.0,2.0,84,0.00,,,0.00,meteohub,2013-08-31 23:02:00,
2013-08-31 19:07:00,78.3,73.0,29.82,SSE,150,2.0,2.0,84,0.00,,,0.00,meteohub,2013-08-31 23:07:00,
2013-08-31 19:12:00,78.3,73.0,29.82,SSE,157,1.0,2.0,84,0.00,,,0.00,meteohub,2013-08-31 23:12:00,
2013-08-31 19:17:00,78.3,73.0,29.82,SSE,157,1.0,2.0,84,0.00,,,0.00,meteohub,2013-08-31 23:17:00,
2013-08-31 19:22:00,78.1,73.2,29.82,SSE,157,1.0,2.0,85,0.00,,,0.00,meteohub,2013-08-31 23:22:00,
2013-08-31 19:27:00,78.1,73.2,29.82,SSE,157,1.0,2.0,85,0.00,,,0.00,meteohub,2013-08-31 23:27:00,
2013-08-31 19:32:00,77.7,72.9,29.82,SSE,157,1.0,2.0,85,0.00,,,0.00,meteohub,2013-08-31 23:32:00,
2013-08-31 19:37:00,77.7,72.9,29.82,SSE,157,0.0,2.0,85,0.00,,,0.00,meteohub,2013-08-31 23:37:00,
2013-08-31 19:42:00,77.5,72.7,29.83,SSE,157,0.0,2.0,85,0.00,,,0.00,meteohub,2013-08-31 23:42:00,
2013-08-31 19:47:00,77.5,73.0,29.83,SSE,150,1.0,1.0,86,0.00,,,0.00,meteohub,2013-08-31 23:47:00,
2013-08-31 19:52:00,77.4,72.9,29.83,SSE,157,0.0,2.0,86,0.00,,,0.00,meteohub,2013-08-31 23:52:00,
2013-08-31 19:57:00,77.2,72.7,29.83,SSE,157,0.0,2.0,86,0.00,,,0.00,meteohub,2013-08-31 23:57:00,
2013-08-31 20:02:00,77.2,72.7,29.83,SSE,157,1.0,2.0,86,0.00,,,0.00,meteohub,2013-09-01 00:02:00,
2013-08-31 20:07:00,77.2,73.0,29.83,SE,130,2.0,2.0,87,0.00,,,0.00,meteohub,2013-09-01 00:07:00,
2013-08-31 20:12:00,77.2,73.0,29.82,SE,144,3.0,3.0,87,0.00,,,0.00,meteohub,2013-09-01 00:12:00,
2013-08-31 20:17:00,77.2,73.0,29.83,SSW,211,1.0,3.0,87,0.00,,,0.00,meteohub,2013-09-01 00:17:00,
2013-08-31 20:22:00,77.2,73.0,29.83,SSE,153,0.0,3.0,87,0.00,,,0.00,meteohub,2013-09-01 00:22:00,
2013-08-31 20:27:00,77.0,72.9,29.84,SSE,153,1.0,3.0,87,0.00,,,0.00,meteohub,2013-09-01 00:27:00,
2013-08-31 20:32:00,77.2,73.0,29.84,SSE,152,0.0,2.0,87,0.00,,,0.00,meteohub,2013-09-01 00:32:00,
2013-08-31 20:37:00,77.0,72.9,29.85,SSE,153,1.0,2.0,87,0.00,,,0.00,meteohub,2013-09-01 00:37:00,
2013-08-31 20:42:00,77.0,73.2,29.85,SSE,153,1.0,2.0,88,0.00,,,0.00,meteohub,2013-09-01 00:42:00,
2013-08-31 20:47:00,76.8,73.0,29.85,SSE,153,1.0,2.0,88,0.00,,,0.00,meteohub,2013-09-01 00:47:00,
2013-08-31 20:52:00,76.8,73.0,29.85,SSE,153,1.0,2.0,88,0.00,,,0.00,meteohub,2013-09-01 00:52:00,
2013-08-31 20:57:00,76.8,73.0,29.85,SSE,153,0.0,2.0,88,0.00,,,0.00,meteohub,2013-09-01 00:57:00,
2013-08-31 21:02:00,76.6,73.2,29.85,SSE,153,0.0,1.0,89,0.00,,,0.00,meteohub,2013-09-01 01:02:00,
2013-08-31 21:07:00,76.6,73.2,29.85,SSE,153,0.0,1.0,89,0.00,,,0.00,meteohub,2013-09-01 01:07:00,
2013-08-31 21:12:00,76.5,73.2,29.86,SSE,153,0.0,1.0,90,0.00,,,0.00,meteohub,2013-09-01 01:12:00,
2013-08-31 21:17:00,76.3,73.4,29.86,SSE,153,0.0,0.0,91,0.00,,,0.00,meteohub,2013-09-01 01:17:00,
2013-08-31 21:22:00,75.9,73.0,29.86,SSE,153,0.0,1.0,91,0.00,,,0.00,meteohub,2013-09-01 01:22:00,
2013-08-31 21:27:00,75.7,73.2,29.86,SSE,153,0.0,1.0,92,0.00,,,0.00,meteohub,2013-09-01 01:27:00,
2013-08-31 21:32:00,75.6,73.0,29.86,SSE,153,0.0,1.0,92,0.00,,,0.00,meteohub,2013-09-01 01:32:00,
2013-08-31 21:37:00,75.6,73.0,29.86,SSE,153,0.0,1.0,92,0.00,,,0.00,meteohub,2013-09-01 01:37:00,
2013-08-31 21:42:00,75.4,73.2,29.86,SSE,153,0.0,1.0,93,0.01,,,0.01,meteohub,2013-09-01 01:42:00,
2013-08-31 21:47:00,75.2,73.0,29.86,SSE,153,0.0,0.0,93,0.01,,,0.01,meteohub,2013-09-01 01:47:00,
2013-08-31 21:52:00,75.0,72.9,29.86,SSE,153,0.0,0.0,93,0.01,,,0.01,meteohub,2013-09-01 01:52:00,
2013-08-31 21:57:00,75.0,73.2,29.86,SSE,153,0.0,0.0,94,0.01,,,0.01,meteohub,2013-09-01 01:57:00,
2013-08-31 22:02:00,75.0,73.2,29.86,SSE,153,0.0,0.0,94,0.01,,,0.01,meteohub,2013-09-01 02:02:00,
2013-08-31 22:07:00,74.8,73.0,29.86,SSE,153,0.0,0.0,94,0.01,,,0.01,meteohub,2013-09-01 02:07:00,
2013-08-31 22:12:00,74.8,73.0,29.86,SSE,153,0.0,0.0,94,0.01,,,0.01,meteohub,2013-09-01 02:12:00,
2013-08-31 22:17:00,74.7,72.9,29.86,SSE,153,0.0,1.0,94,0.01,,,0.01,meteohub,2013-09-01 02:17:00,
2013-08-31 22:22:00,74.7,73.2,29.86,SSE,153,0.0,1.0,95,0.01,,,0.01,meteohub,2013-09-01 02:22:00,
2013-08-31 22:27:00,74.5,73.0,29.86,SSE,153,0.0,1.0,95,0.01,,,0.01,meteohub,2013-09-01 02:27:00,
2013-08-31 22:32:00,74.5,73.0,29.86,SSE,153,0.0,1.0,95,0.01,,,0.01,meteohub,2013-09-01 02:32:00,
2013-08-31 22:37:00,74.5,73.0,29.86,SSE,153,0.0,1.0,95,0.01,,,0.01,meteohub,2013-09-01 02:37:00,
2013-08-31 22:42:00,74.5,73.0,29.86,SSE,153,0.0,0.0,95,0.00,,,0.01,meteohub,2013-09-01 02:42:00,
2013-08-31 22:47:00,74.3,72.9,29.86,SSE,153,0.0,1.0,95,0.00,,,0.01,meteohub,2013-09-01 02:47:00,
2013-08-31 22:52:00,74.1,72.7,29.85,SSE,153,0.0,1.0,95,0.00,,,0.01,meteohub,2013-09-01 02:52:00,
2013-08-31 22:57:00,74.1,72.7,29.85,SSE,153,0.0,1.0,95,0.00,,,0.01,meteohub,2013-09-01 02:57:00,
2013-08-31 23:02:00,74.1,72.9,29.85,SSE,153,0.0,1.0,96,0.00,,,0.01,meteohub,2013-09-01 03:02:00,
2013-08-31 23:07:00,74.1,72.9,29.85,SSE,153,0.0,1.0,96,0.00,,,0.01,meteohub,2013-09-01 03:07:00,
2013-08-31 23:12:00,74.1,72.9,29.85,SSE,153,0.0,1.0,96,0.00,,,0.01,meteohub,2013-09-01 03:12:00,
2013-08-31 23:17:00,73.9,72.5,29.85,SSE,153,0.0,0.0,95,0.00,,,0.01,meteohub,2013-09-01 03:17:00,
2013-08-31 23:22:00,73.9,72.7,29.85,SSE,153,0.0,0.0,96,0.00,,,0.01,meteohub,2013-09-01 03:22:00,
2013-08-31 23:27:00,73.9,72.7,29.84,SSE,153,0.0,0.0,96,0.00,,,0.01,meteohub,2013-09-01 03:27:00,
2013-08-31 23:32:00,73.9,72.7,29.84,SSE,153,0.0,1.0,96,0.00,,,0.01,meteohub,2013-09-01 03:32:00,
2013-08-31 23:37:00,73.9,72.7,29.84,SSE,153,0.0,1.0,96,0.00,,,0.01,meteohub,2013-09-01 03:37:00,
2013-08-31 23:42:00,73.9,72.7,29.84,SSE,153,0.0,1.0,96,0.00,,,0.01,meteohub,2013-09-01 03:42:00,
2013-08-31 23:47:00,73.8,72.5,29.84,SSE,153,0.0,2.0,96,0.00,,,0.01,meteohub,2013-09-01 03:47:00,
2013-08-31 23:52:00,73.8,72.5,29.84,SSE,153,1.0,2.0,96,0.00,,,0.01,meteohub,2013-09-01 03:52:00,
2013-08-31 23:57:00,73.9,72.7,29.84,SSE,153,0.0,2.0,96,0.00,,,0.01,meteohub,2013-09-01 03:57:00,